Powrót do katalogu

HJ-2A

AktywnyNaukaSSO
NORAD 46478·PAYLOAD·🇨🇳 China

Wystrzelony Sep 27, 2020 z Taiyuan Satellite Launch Center

Loading…

Następne Przeloty (najbliższe 24 godziny)

TLE

ŚwieżeSource: Space-Track

Epoka: Sep 14, 2026, 14:49 UTC

1 46478U 20067A   26257.61756579  .00000258  00000-0  44178-4 0  9995
2 46478  97.8771 333.8468 0003418   2.3169 357.8057 14.76545765321452

Śledź HJ-2A w czasie rzeczywistym z AllMySat

Download on the App Store